Fond du Lac, WI

3:14 AM CDT on April 20, 2018 (GMT -0500)
Fond du Lac County

Weather History for KFLD - February, 2014

Change the Weather History Date:

Monday, February 10, 2014

  Actual Average Record
Temperature  
Mean Temperature -1 °F -  
Max Temperature 7 °F 26 °F 53 °F (2009)
Min Temperature -9 °F 11 °F -14 °F (1979)
Degree Days  
Heating Degree Days 66    
Moisture  
Dew Point -11 °F    
Average Humidity 60    
Maximum Humidity 75    
Minimum Humidity 50    
Precipitation  
Precipitation 0.00 in - - ()
Sea Level Pressure  
Sea Level Pressure 30.35 in    
Wind  
Wind Speed 9 mph (WNW)    
Max Wind Speed 13 mph    
Max Gust Speed -    
Visibility 10 miles    
Events      
Averages and records for this station are not official NWS values.
T = Trace of Precipitation, MM = Missing Value Source: NWS Daily Summary

Daily Weather History Graph

Daily Weather History Graph

Search for Another Location

Airport or City:

Astronomy

Feb. 10, 2014 Rise Set
Actual Time 6:59 AM CST 5:17 PM CST
Civil Twilight 6:29 AM CST 5:47 PM CST
Nautical Twilight 5:55 AM CST 6:21 PM CST
Astronomical Twilight 5:22 AM CST 6:54 PM CST
Moon 1:42 PM CST (2/10) 3:56 AM CST (2/10)
Length of Visible Light 11h 17m
Length of Day
10h 17m
Waxing Gibbous, 85% of the Moon is Illuminated
Feb 10
Waxing Gibbous
Feb 14
Full
Feb 22
Last Quarter
Mar 1
New
Mar 8
First Quarter

Hourly Weather History & Observations

Time (CST) Temp. Windchill Dew Point Humidity Pressure Visibility Wind Dir Wind Speed Gust Speed Precip Events Conditions
12:53 AM - - - N/A% 30.27 in 10.0 mi WNW 10.4 mph - N/A   Clear
1:53 AM - - - N/A% 30.28 in 10.0 mi NW 10.4 mph - N/A   Clear
2:53 AM - - - N/A% 30.28 in 10.0 mi WNW 11.5 mph - N/A   Clear
3:53 AM - - - N/A% 30.28 in 10.0 mi WNW 11.5 mph - N/A   Clear
4:53 AM - - - N/A% 30.30 in 10.0 mi WNW 11.5 mph - N/A   Clear
5:53 AM - - - N/A% 30.32 in 10.0 mi WNW 10.4 mph - N/A   Clear
6:53 AM - - - N/A% 30.33 in 10.0 mi WNW 12.7 mph - N/A   Clear
7:53 AM - - - N/A% 30.35 in 10.0 mi WNW 11.5 mph - N/A   Clear
8:53 AM - - - N/A% 30.36 in 10.0 mi NW 8.1 mph - N/A   Clear
9:53 AM - - - N/A% 30.37 in 10.0 mi NW 9.2 mph - 0.00 in   Clear
10:53 AM - - - N/A% 30.38 in 10.0 mi West 9.2 mph - N/A   Clear
11:53 AM 1.9 °F -13.8 °F -9.9 °F 58% 30.37 in 10.0 mi WNW 10.4 mph - 0.00 in   Clear
12:53 PM 3.9 °F -12.2 °F -9.0 °F 55% 30.34 in 10.0 mi West 11.5 mph - N/A   Unknown
1:53 PM 6.1 °F -9.5 °F -9.0 °F 50% 30.33 in 10.0 mi West 11.5 mph - N/A   Clear
3:53 PM 7.0 °F -6.6 °F -8.0 °F 51% 30.34 in 10.0 mi West 9.2 mph - N/A   Unknown
4:53 PM 6.1 °F -6.8 °F -8.0 °F 53% 30.35 in 10.0 mi WNW 8.1 mph - N/A   Clear
5:53 PM 5.0 °F -2.1 °F -9.0 °F 52% 30.37 in 10.0 mi West 3.5 mph - N/A   Clear
6:53 PM 1.0 °F -10.3 °F -9.9 °F 60% 30.38 in 10.0 mi NW 5.8 mph - N/A   Clear
7:53 PM -0.0 °F -11.6 °F -11.0 °F 60% 30.39 in 10.0 mi NW 5.8 mph - N/A   Clear
8:53 PM -2.0 °F -12.2 °F -11.9 °F 63% 30.40 in 10.0 mi West 4.6 mph - N/A   Clear
9:53 PM -2.9 °F -11.2 °F -11.9 °F 65% 30.41 in 10.0 mi WNW 3.5 mph - N/A   Clear
10:53 PM -9.0 °F - -15.0 °F 75% 30.42 in 10.0 mi Calm Calm - N/A   Clear
11:53 PM -8.0 °F -16.9 °F -14.1 °F 75% 30.43 in 10.0 mi SSW 3.5 mph - N/A   Clear